Weather History for Ft Pierce, FL

Change the Weather History Date:

Wednesday, December 12, 2012

  Actual Average Record
Temperature  
Mean Temperature 76 °F -  
Max Temperature 82 °F 76 °F 87 °F (1986)
Min Temperature 70 °F 54 °F 27 °F (1957)
Cooling Degree Days 11    
Growing Degree Days 26 (Base 50)    
Moisture  
Dew Point 70 °F    
Average Humidity 86    
Maximum Humidity 97    
Minimum Humidity 63    
Precipitation  
Precipitation 0.03 in - - ()
Sea Level Pressure  
Sea Level Pressure 30.05 in    
Wind  
Wind Speed 3 mph (SW)    
Max Wind Speed 13 mph    
Max Gust Speed 17 mph    
Visibility 9 miles    
Events Rain , Thunderstorm    
Averages and records for this station are not official NWS values.
T = Trace of Precipitation, MM = Missing Value Source: NWS Daily Summary

Daily Weather History Graph

Daily Weather History Graph

Search for Another Location

Airport:

Trip Planner

Search our weather history database for the weather conditions in past years. The results will help you decide how hot, cold, wet, or windy it might be!

Date:

Astronomy

Dec. 12, 2012 Rise Set
Actual Time 7:02 AM EST 5:28 PM EST
Civil Twilight 6:37 AM EST 5:53 PM EST
Nautical Twilight 6:07 AM EST 6:23 PM EST
Astronomical Twilight 5:39 AM EST 6:51 PM EST
Moon 6:07 AM EST (12/12) 5:02 PM EST (12/12)
Length of Visible Light 11h 16m
Length of Day
10h 25m
Waning Crescent, 1% of the Moon is Illuminated
Dec 12
Waning Crescent
Dec 13
New
Dec 20
First Quarter
Dec 28
Full
Jan 4
Last Quarter

Hourly Weather History & Observations

Time (EST) Temp. Heat Index Dew Point Humidity Pressure Visibility Wind Dir Wind Speed Gust Speed Precip Events Conditions
12:53 AM 71.1 °F - 66.9 °F 87% 30.03 in 10.0 mi Calm Calm - 0.00 in   Scattered Clouds
1:53 AM 71.1 °F - 68.0 °F 90% 30.04 in 10.0 mi Calm Calm - N/A   Overcast
2:53 AM 71.1 °F - 68.0 °F 90% 30.04 in 10.0 mi NNW 3.5 mph - N/A   Overcast
3:53 AM 71.1 °F - 68.0 °F 90% 30.04 in 10.0 mi NW 3.5 mph - N/A   Mostly Cloudy
4:00 AM 71.6 °F - 68.0 °F 88% 30.04 in 10.0 mi Calm Calm - N/A   Overcast
4:42 AM 71.6 °F - 69.8 °F 94% 30.04 in 5.0 mi West 3.5 mph - 0.01 in Rain Rain
4:50 AM 71.6 °F - 69.8 °F 94% 30.04 in 6.0 mi West 3.5 mph - 0.02 in Rain Light Rain
4:53 AM 71.1 °F - 69.1 °F 93% 30.03 in 7.0 mi West 3.5 mph - 0.02 in Rain Light Rain
4:58 AM 71.6 °F - 69.8 °F 94% 30.03 in 7.0 mi Calm Calm - 0.00 in Rain , Thunderstorm Light Rain
5:15 AM 71.6 °F - 69.8 °F 94% 30.03 in 10.0 mi NW 3.5 mph - 0.00 in Thunderstorm Mostly Cloudy
5:24 AM 71.6 °F - 69.8 °F 94% 30.02 in 10.0 mi East 4.6 mph - 0.00 in   Mostly Cloudy
5:48 AM 71.6 °F - 69.8 °F 94% 30.04 in 9.0 mi NW 3.5 mph - 0.00 in   Scattered Clouds
5:53 AM 70.0 °F - 69.1 °F 97% 30.04 in 8.0 mi NNW 3.5 mph - 0.01 in   Partly Cloudy
6:53 AM 70.0 °F - 69.1 °F 97% 30.05 in 9.0 mi Calm Calm - N/A   Partly Cloudy
7:53 AM 71.1 °F - 70.0 °F 96% 30.06 in 8.0 mi Calm Calm - N/A   Mostly Cloudy
8:53 AM 75.0 °F - 72.0 °F 90% 30.08 in 10.0 mi Calm Calm - N/A   Clear
9:38 AM 77.0 °F - 71.6 °F 83% 30.10 in 10.0 mi South 6.9 mph - N/A   Mostly Cloudy
9:53 AM 78.1 °F - 72.0 °F 81% 30.10 in 10.0 mi SW 4.6 mph - N/A   Mostly Cloudy
10:15 AM 78.8 °F - 71.6 °F 78% 30.10 in 10.0 mi SW 9.2 mph - N/A   Scattered Clouds
10:53 AM 81.0 °F 85.2 °F 72.0 °F 74% 30.09 in 10.0 mi SSW 11.5 mph 17.3 mph N/A   Mostly Cloudy
11:29 AM 82.4 °F 86.3 °F 69.8 °F 66% 30.09 in 10.0 mi South 12.7 mph - N/A   Mostly Cloudy
11:53 AM 81.0 °F 84.4 °F 70.0 °F 69% 30.08 in 10.0 mi South 9.2 mph - N/A   Mostly Cloudy
12:53 PM 82.9 °F 86.5 °F 69.1 °F 63% 30.04 in 10.0 mi SSW 8.1 mph - N/A   Overcast
1:53 PM 82.0 °F 85.9 °F 70.0 °F 67% 30.03 in 10.0 mi SSW 6.9 mph - N/A   Mostly Cloudy
2:53 PM 80.1 °F 83.2 °F 70.0 °F 71% 30.02 in 10.0 mi SSW 5.8 mph - N/A   Partly Cloudy
3:53 PM 79.0 °F - 71.1 °F 77% 30.02 in 10.0 mi SSW 3.5 mph - N/A   Clear
4:53 PM 79.0 °F - 71.1 °F 77% 30.04 in 10.0 mi SSW 3.5 mph - N/A   Partly Cloudy
5:53 PM 75.9 °F - 71.1 °F 85% 30.05 in 10.0 mi Calm Calm - N/A   Clear
6:53 PM 75.9 °F - 71.1 °F 85% 30.05 in 10.0 mi South 3.5 mph - N/A   Scattered Clouds
7:53 PM 75.9 °F - 71.1 °F 85% 30.06 in 10.0 mi SSW 3.5 mph - N/A   Clear
8:53 PM 73.9 °F - 71.1 °F 91% 30.06 in 10.0 mi SW 3.5 mph - N/A   Clear
9:53 PM 73.0 °F - 71.1 °F 93% 30.06 in 10.0 mi South 4.6 mph - N/A   Clear
10:53 PM 72.0 °F - 70.0 °F 93% 30.06 in 9.0 mi Calm Calm - N/A   Partly Cloudy
11:50 PM 73.4 °F - 71.6 °F 94% 30.06 in 8.0 mi SW 3.5 mph - N/A   Mostly Cloudy
11:53 PM 73.0 °F - 71.1 °F 93% 30.06 in 8.0 mi SW 4.6 mph - N/A   Mostly Cloudy